Voltar ao catálogo

COSMOS 970 DEB

AtivoLEO
NORAD 64967·DEBRIS·🇷🇺 Russia

Lançado Dec 21, 1977 de Baikonur Cosmodrome

Loading…

Próximas Passagens (próximas 24 horas)

TLE

AtualizadoSource: Space-Track

Época: Sep 13, 2026, 03:35 UTC

1 64967U 77121CC  26256.14988267  .00000048  00000-0  15693-3 0  9995
2 64967  65.7386 198.4152 0105078 195.4617 180.9270 13.62638937636823

Acompanhe COSMOS 970 DEB em tempo real com AllMySat

Download on the App Store